Regional Weather Roundup
Issued by NWS Burlington, VT

Home | Current Version | Previous Version | Text Only | Print | Product List | Glossary On
Versions: 1 2 3 4 5 6 7 8 9 10 11 12 13 14 15 16 17 18 19 20 21 22 23 24 25 26 27 28 29 30 31 32 33 34 35 36 37 38 39 40 41 42 43 44 45 46 47 48 49 50
000
ASUS41 KBTV 230030
RWRBTV
VERMONT REGIONAL WEATHER ROUNDUP
NATIONAL WEATHER SERVICE BURLINGTON VT
800 PM EDT TUE JUL 22 2014

NOTE: "FAIR" INDICATES FEW OR NO CLOUDS BELOW 12,000 FEET WITH NO
SIGNIFICANT WEATHER AND/OR OBSTRUCTIONS TO VISIBILITY.

* THESE REPORTS ARE NOT UNDER NWS QUALITY CONTROL AND/OR DO NOT
  REPORT WEATHER SUCH AS PRECIPITATION AND FOG.

VTZ001>019-230100-
_____VERMONT_____


CITY           SKY/WX    TMP DP  RH WIND       PRES   REMARKS
BURLINGTON     MOCLDY    84  66  54 SW3       29.95R
6HR MIN TEMP:  84; 6HR MAX TEMP:  90;

MONTPELIER     MOCLDY    77  66  68 S6        30.03F
6HR MIN TEMP:  77; 6HR MAX TEMP:  86;

MORRISVILLE    MOCLDY    77  68  73 CALM      29.99S
6HR MIN TEMP:  77; 6HR MAX TEMP:  86;

ST. JOHNSBURY*   N/A     76  70  82 MISG      29.96S
6HR MIN TEMP:  76; 6HR MAX TEMP:  87;

LYNDONVILLE*   FAIR      77  62  58 CALM      30.01F
6HR MIN TEMP:  78; 6HR MAX TEMP:  85;

MIDDLEBURY*    FAIR      79  69  73 CALM      29.97S
6HR MIN TEMP:  79; 6HR MAX TEMP:  88;

RUTLAND*       PTCLDY    79  68  69 SE3       30.01S
6HR MIN TEMP:  81; 6HR MAX TEMP:  84;

SPRINGFIELD    CLEAR     80  67  64 W5        30.00F
6HR MIN TEMP:  80; 6HR MAX TEMP:  88;

HIGHGATE*      FAIR      76  67  72 CALM      29.94S
6HR MIN TEMP:  78; 6HR MAX TEMP:  86;

NEWPORT*       FAIR     N/A N/A N/A CALM      29.99S
BENNINGTON     PTCLDY    80  68  66 VRB3      30.03S
6HR MIN TEMP:  80; 6HR MAX TEMP:  86;

SUTTON*          N/A     72 N/A N/A MISG        N/A
GALLUP MILLS*    N/A     54 N/A N/A MISG        N/A
UNION VILLAGE*   N/A     75 N/A N/A MISG        N/A
MT. MANSFIELD*   N/A     66 N/A N/A W15         N/A

_____LAKE CHAMPLAIN_____


CITY           SKY/WX    TMP DP  RH WIND       PRES   REMARKS
BURTON ISLAND*   N/A     81  68  65 E1          N/A
COLCHESTER RF*   N/A     79  66  65 NW1         N/A
DIAMOND ISL*     N/A     82  70  65 SW7         N/A

$$

NYZ007-026>031-035-052-083-230100-
_____NORTHERN NEW YORK_____


CITY           SKY/WX    TMP DP  RH WIND       PRES   REMARKS
PLATTSBURGH    MOCLDY    79  72  79 CALM      29.93F
6HR MIN TEMP:  78; 6HR MAX TEMP:  85;

SARANAC LAKE   MOCLDY    76  61  59 SW5       30.02S
6HR MIN TEMP:  76; 6HR MAX TEMP:  82;

MASSENA        PTCLDY    79  66  64 SW8       29.94F
6HR MIN TEMP:  79; 6HR MAX TEMP:  85;

OGDENSBURG*    CLEAR     75  63  64 SW5       29.94F
POTSDAM*       CLEAR     77  64  65 SW7       29.96S
PARISHVILLE*     N/A     75 N/A N/A SW5         N/A
WATERTOWN      PTCLDY    79  62  56 S3        29.97F
6HR MIN TEMP:  79; 6HR MAX TEMP:  85;

FT DRUM        PTCLDY    79  64  59 SW5       29.98F
6HR MIN TEMP:  79; 6HR MAX TEMP:  86;

ALBANY         PTCLDY    85  69  58 S12       29.99F
6HR MIN TEMP:  85; 6HR MAX TEMP:  87;

GLENS FALLS    CLEAR     82  69  64 S7        29.98S
6HR MIN TEMP:  82; 6HR MAX TEMP:  88;


$$
NHZ002-005-011-230100-
_____NEW HAMPSHIRE_____


CITY           SKY/WX    TMP DP  RH WIND       PRES   REMARKS
LEBANON        CLEAR     76  68  76 S3        29.98F
6HR MIN TEMP:  76; 6HR MAX TEMP:  90;

KEENE          CLEAR     79  63  57 S5        30.01S
6HR MIN TEMP:  81; 6HR MAX TEMP:  88;

MT WASHINGTON  FOG       56  55  95 W25         N/A  VSB 3/4
6HR MIN TEMP:  55; 6HR MAX TEMP:  60;

PLYMOUTH       FAIR      74  69  83 CALM      29.98R
6HR MIN TEMP:  76; 6HR MAX TEMP:  87;

WHITEFIELD     PTCLDY    78  63  59 CALM      30.00S
6HR MIN TEMP:  78; 6HR MAX TEMP:  86;


$$

_____REGIONAL QUEBEC LOCATIONS_____


CITY           SKY/WX    TMP DP  RH WIND       PRES   REMARKS
MONTREAL       MOCLDY    81  66  61 SW9       29.91F
QUEBEC CITY    MOCLDY    79  66  65 SW14      29.88F
SHERBROOKE     CLEAR     75  66  73 SW2       29.97F

_____REGIONAL ONTARIO LOCATIONS_____


CITY           SKY/WX    TMP DP  RH WIND       PRES   REMARKS
OTTAWA         CLOUDY    79  64  61 S7        29.93R

______KEY______
VSB  - VISIBILITY IN MILES
WCI  - WIND CHILL INDEX
HX   - HEAT INDEX
$$
NNNN



USA.gov is the U.S. government's official web portal to all federal, state and local government web resources and services.